Погода в Неллоре

Индия     14°26′29″N   79°59′04″E
темп.,
°C
ветер,
м/с
пор.,
м/с
влажн.,
%
обл.,
%
осадки,
мм/ч
давл.,
гПа
погр.,
м
20 июня, вс
вс2023:30+33з71142100 1.3 10081007
02:30+31з71249100 0.0 10071064
05:30+30зсз5952100 0.0 1007829
08:30+33з7104488 0.0 10091406
11:30+37з81033100 0.0 10082259
14:30+39з892793 0.0 10043412
17:30+37зсз5829100 0.1 10041689
20:30+35зюз51035100 0.6 1007638
21 июня, пн
пн2123:30+33сз594291 0.9 1008520
02:30+31з5947100 0.0 1006564
05:30+29з61154100 0.0 1007795
08:30+31з7948100 0.0 10091105
11:30+36зсз7833100 0.0 10082095
14:30+38зсз7726100 0.0 10043061
17:30+38з6825100 0.0 10042978
20:30+34ююз4835100 0.0 1005354
22 июня, вт
вт2223:30+33ююз4637100 0.0 1006210
02:30+33з61038100 0.0 1004828
05:30+31зсз61149100 0.0 1006727
08:30+33зсз81042100 0.0 10081070
11:30+37зсз7732100 0.0 10061912
14:30+39зсз5526100 0.0 10033407
17:30+35ссз5636100 0.1 1004876
20:30+32ююв5651100 0.3 1006245
23 июня, ср
ср2323:30+32ююз2451100 0.4 1006207
02:30+31ююв1252100 0.1 1005128
05:30+31зсз4847100 0.1 1006550
08:30+31зсз6952100 0.0 1008978
11:30+30з5754100 0.0 1008766
14:30+30з4554100 0.0 1006682
17:30+30зсз3653100 0.0 1006646
20:30+29зюз4857100 0.1 1007395
24 июня, чт
чт2423:30+29ююз4756100 0.1 1007279
02:30+29з2360100 0.0 1006115
05:30+28з3660100 0.2 1006253
08:30+28зсз486897 1.0 1008625
11:30+30зсз6956100 1.1 10081290
14:30+31сз6851100 0.1 1005967
17:30+30зсз61152100 0.3 1006826
20:30+29з41055100 0.0 1007540